カタログに戻る

STARLINK-4539

運用中通信VLEO
NORAD 53423·PAYLOAD·🇺🇸 United States

打ち上げ Aug 10, 2022 から Cape Canaveral Space Force Station

Loading…

次のパス (今後24時間)

TLE

最新Source: CelesTrak SupGP

元期: Sep 14, 2026, 19:50 UTC

1 53423C 22097AM  26257.82687500 -.00035264  00000+0 -11341-2 0  2575
2 53423  53.1587 330.1694 0001212  86.5787 225.5014 15.31716653    19

AllMySatでSTARLINK-4539をリアルタイム追跡

Download on the App Store